Regional Weather Roundup
Issued by NWS

Home | Current Version | Previous Version | Text Only | Print | Product List | Glossary Off
Versions: 1 2 3 4 5 6 7 8 9 10 11 12 13 14 15 16 17 18 19 20 21 22 23 24 25 26 27 28 29 30 31 32 33 34 35 36 37 38 39 40 41 42 43 44 45 46 47 48 49 50

435
ASUS45 KCYS 260610
RWRWY

WYOMING REGIONAL WEATHER ROUNDUP
NATIONAL WEATHER SERVICE CHEYENNE WY
1100 PM MST SAT FEB 25 2017

NOTE:  "FAIR" INDICATES FEW OR NO CLOUDS BELOW 12,000 FEET
WITH NO SIGNIFICANT WEATHER AND/OR OBSTRUCTIONS TO VISIBILITY.

WYZ001-260700-
YELLOWSTONE NATIONAL PARK

CITY           SKY/WX    TMP DP  RH WIND       PRES   REMARKS
LK YELLOWSTONE   N/A     -1  -4  87 CALM      29.75F
6HR MIN TEMP:  -5; 6HR MAX TEMP:   9;

W YELLOWSTONE  NOT AVBL

$$
WYZ002>013-054>058-071-098>099-260700-
NORTHERN WYOMING

CITY           SKY/WX    TMP DP  RH WIND       PRES   REMARKS
JACKSON        CLOUDY    12   9  85 SW7       29.83S WCI   2
CODY           FAIR      22   1  40 W17G38    29.69S WCI   8
GREYBULL       FAIR      24  10  55 SE3       29.74R
6HR MIN TEMP:  23; 6HR MAX TEMP:  33;

WORLAND        FAIR      15   8  73 S7        29.74R WCI   5
6HR MIN TEMP:  14; 6HR MAX TEMP:  31;

SHERIDAN       FAIR      16   9  74 S9        29.70S WCI   4
6HR MIN TEMP:  15; 6HR MAX TEMP:  30; 6HR PCP: TRACE;

BUFFALO        FAIR      15   5  64 SW7       29.67F WCI   5
6HR MIN TEMP:  13; 6HR MAX TEMP:  24;

GILLETTE       CLOUDY    21  16  81 W8        29.69S WCI  11
6HR MIN TEMP:  17; 6HR MAX TEMP:  29; 6HR PCP:  0.01;

HULETT         MOCLDY    21  16  79 SW9       29.69S WCI  11
NEWCASTLE      FAIR      12  10  92 N5        29.73S WCI   4

$$
WYZ014>020-022>026-101>103-260700-
CENTRAL WYOMING

CITY           SKY/WX    TMP DP  RH WIND       PRES   REMARKS
BIG PINEY      FAIR      -7 -11  83 CALM      29.83R
6HR MIN TEMP: -10; 6HR MAX TEMP:   9;

PINEDALE       FAIR      -8  -9  92 NW3       29.83S
DUBOIS         FAIR       9  -2  61 NW22G30   29.71R WCI -11
LANDER         FAIR      10  -6  48 SW3       29.74S
6HR MIN TEMP:   4; 6HR MAX TEMP:  22;

RIVERTON       FAIR      16   1  51 NW25      29.72F WCI  -3
6HR MIN TEMP:  10; 6HR MAX TEMP:  19;

CASPER         FAIR      10  -2  58 SW10      29.73S WCI  -4
6HR MIN TEMP:   9; 6HR MAX TEMP:  19;

DOUGLAS        FAIR      11   2  67 N5        29.74R WCI   3
6HR MIN TEMP:   8; 6HR MAX TEMP:  20;


$$
WYZ021-027>030-104>119-260700-
SOUTHERN WYOMING

CITY           SKY/WX    TMP DP  RH WIND       PRES   REMARKS
EVANSTON       FAIR       4   0  83 SW10      29.86F WCI -11
6HR MIN TEMP:   3; 6HR MAX TEMP:  16; 6HR PCP: TRACE;

KEMMERER         N/A      3   0  85 W9        29.83S WCI -11
FORT BRIDGER   FAIR       8   6  92 W15       29.89R WCI  -9
ROCK SPRINGS   FAIR       9   3  77 W18       29.84R WCI -10
6HR MIN TEMP:   9; 6HR MAX TEMP:  17;

DIXON            N/A      1  -3  85 CALM      29.90S
RAWLINS        FAIR      10   4  76 W26G35    29.77S WCI -11
6HR MIN TEMP:  10; 6HR MAX TEMP:  17; 6HR PCP: TRACE;

SARATOGA       FAIR      12   9  85 W17G24    29.80S WCI  -5
LARAMIE        MOCLDY    13   1  59 W24G31    29.70S WCI  -7
6HR MIN TEMP:  11; 6HR MAX TEMP:  15;

CHEYENNE       FAIR      13   1  59 W8        29.75R WCI   2
6HR MIN TEMP:  13; 6HR MAX TEMP:  21;

TORRINGTON     FAIR      22   9  57 W18G25    29.77R WCI   7
6HR MIN TEMP:  14; 6HR MAX TEMP:  25;

PINE BLUFFS    FAIR      14   5  67 W9G17     29.80R WCI   2

$$




USA.gov is the U.S. government's official web portal to all federal, state and local government web resources and services.